Regional Weather Roundup
Issued by NWS

Home | Current Version | Previous Version | Text Only | Print | Product List | Glossary Off
Versions: 1 2 3 4 5 6 7 8 9 10 11 12 13 14 15 16 17 18 19 20 21 22 23 24 25 26 27 28 29 30 31 32 33 34 35 36 37 38 39 40 41 42 43 44 45 46 47 48 49 50

000
ASUS43 KFSD 232202
RWRSD

WEATHER ROUNDUP FOR SOUTH DAKOTA
NATIONAL WEATHER SERVICE SIOUX FALLS SD
500 PM CDT MON MAY 23 2016

NOTE: "FAIR" INDICATES FEW OR NO CLOUDS BELOW 12,000 FEET WITH NO
SIGNIFICANT WEATHER AND/OR OBSTRUCTIONS TO VISIBILITY.


SDZ001>005-009-010-012>017-232300-
NORTHWEST AND NORTH CENTRAL SOUTH DAKOTA

CITY           SKY/WX    TMP DP  RH WIND       PRES   REMARKS
BUFFALO          N/A     74  32  21 S8        29.63S
FAITH            N/A     75  39  27 SW9       29.69F
MOBRIDGE       SUNNY     77  47  34 SE12      29.66F
$$

SDZ012>016-024>037-041>051-057-063-072>074-232300-
SOUTHWEST AND SOUTH CENTRAL SOUTH DAKOTA

CITY           SKY/WX    TMP DP  RH WIND       PRES   REMARKS
RAPID CTY ARPT SUNNY     76  24  14 W13G20    29.70F
PIERRE         MOSUNNY   78  46  32 S8        29.67S
CUSTER         SUNNY     62  24  23 W10G22    29.82S
ELLSWORTH AFB  SUNNY     77  24  14 W18       29.69F
PHILIP         SUNNY     77  36  22 SW9       29.69F
PINE RIDGE     SUNNY     73  32  22 W15G23    29.77S
WINNER         FAIR      77  48  35 S10       29.71F
$$

SDZ004>011-016>023-039-040-232300-
NORTHEAST SOUTH DAKOTA

CITY           SKY/WX    TMP DP  RH WIND       PRES   REMARKS
ABERDEEN       MOSUNNY   80  50  34 SW5       29.69S
WATERTOWN      PTSUNNY   73  58  59 S6        29.73F
BROOKINGS      CLOUDY    73  60  63 SW8       29.73S
SISSETON         N/A     78  53  41 SW12      29.69S
$$

SDZ017-020-022-023-036>040-048>070-232300-
SOUTHEAST SOUTH DAKOTA

CITY           SKY/WX    TMP DP  RH WIND       PRES   REMARKS
SIOUX FALLS    CLOUDY    73  61  65 SW5       29.72F
HURON          MOSUNNY   75  54  47 S9        29.70S
MITCHELL       CLOUDY    76  58  53 S6G16     29.71F
YANKTON        CLOUDY    73  59  60 SW6       29.73S
$$

ABBREVIATIONS USED IN REMARKS
   TC - TEMPERATURE IN CELSIUS
  WCI - WIND CHILL INDEX
   HX - HEAT INDEX
  VSB - VISIBILITY




USA.gov is the U.S. government's official web portal to all federal, state and local government web resources and services.